KA8UPW-1 Weather Reports


time (UTC)temp
C
wind
direction
speed
KPH
gust
KPH
rain 1hr
cm
rain 24hr
cm
rain mn
cm
humidity
%
barometer
mb
20260903073603 25 0 0.0 0.0 0.00 0.00 0.00 85 1014.3
20260903072703 25 0 0.0 0.0 0.00 0.00 0.00 85 1014.2
20260903071803 25 0 0.0 0.0 0.00 0.00 0.00 85 1014.2
20260903070904 25 0 0.0 0.0 0.00 0.00 0.00 84 1014.1
20260903070221 25 0 0.0 0.0 0.00 0.00 0.00 84 1014.2
20260903065403 25 0 0.0 0.0 0.00 0.00 0.00 84 1014.3
20260903064720 25 0 0.0 0.0 0.00 0.00 0.00 84 1014.3
20260903063604 25 0 0.0 0.0 0.00 0.00 0.00 84 1014.4
20260903062704 25 0 0.0 0.0 0.00 0.00 0.00 83 1014.4
20260903061804 26 0 0.0 0.0 0.00 0.00 0.00 83 1014.4
20260903060903 26 0 0.0 0.0 0.00 0.00 0.00 83 1014.4
20260903060004 26 0 0.0 0.0 0.00 0.00 0.00 83 1014.4
20260903055404 26 0 0.0 0.0 0.00 0.00 0.00 82 1014.4
20260903054503 26 0 0.0 0.0 0.00 0.00 0.00 82 1014.4
20260903053818 26 0 0.0 0.0 0.00 0.00 0.00 82 1014.4
20260903052703 26 0 0.0 0.0 0.00 0.00 0.00 82 1014.3
20260903051803 26 0 0.0 0.0 0.00 0.00 0.00 82 1014.2
20260903050903 26 0 0.0 0.0 0.00 0.00 0.00 81 1014.2
20260903050003 26 0 0.0 0.0 0.00 0.00 0.00 81 1014.1
20260903045403 26 0 0.0 0.0 0.00 0.00 0.00 81 1014.1
20260903044503 26 0 0.0 0.0 0.00 0.00 0.00 81 1014.1
20260903043603 26 0 0.0 0.0 0.00 0.00 0.00 80 1014.1
20260903042703 26 0 0.0 0.0 0.00 0.00 0.00 80 1014.0
20260903041803 27 0 0.0 0.0 0.00 0.00 0.00 80 1013.9
20260903040903 27 0 0.0 0.0 0.00 0.00 0.00 79 1013.9
20260903040010 27 0 0.0 0.0 0.00 0.00 0.00 79 1013.7
20260903035403 27 0 0.0 0.0 0.00 0.00 0.00 79 1013.7
20260903034722 27 0 0.0 0.0 0.00 0.00 0.00 79 1013.5
20260903033604 27 0 0.0 0.0 0.00 0.00 0.00 79 1013.5
20260903032704 27 0 0.0 0.0 0.00 0.00 0.00 79 1013.6
20260903031803 27 0 0.0 0.0 0.00 0.00 0.00 79 1013.8
20260903030904 27 0 0.0 0.0 0.00 0.00 0.00 78 1013.8
20260903030004 27 0 0.0 0.0 0.00 0.00 0.00 78 1014.1
20260903025403 27 0 0.0 0.0 0.00 0.00 0.00 78 1014.0
20260903024503 27 0 0.0 0.0 0.00 0.00 0.00 77 1014.3
20260903023603 27 0 0.0 0.0 0.00 0.00 0.00 77 1014.4
20260903022703 27 0 0.0 0.0 0.00 0.00 0.00 77 1014.4
20260903021803 27 0 0.0 0.0 0.00 0.00 0.00 77 1014.5
20260903021117 27 0 0.0 0.0 0.00 0.00 0.00 77 1014.4
20260903020219 27 0 0.0 0.0 0.00 0.00 0.00 76 1014.4
20260903015403 27 0 0.0 0.0 0.00 0.00 0.00 76 1014.4
20260903014504 27 0 0.0 0.0 0.00 0.00 0.00 76 1014.4
20260903013603 27 0 0.0 0.0 0.00 0.00 0.00 76 1014.3
20260903012703 27 0 0.0 0.0 0.00 0.00 0.00 76 1014.3
20260903011803 27 0 0.0 0.0 0.00 0.00 0.00 76 1014.3
20260903010904 28 0 0.0 0.0 0.00 0.00 0.00 75 1014.3
20260903010004 28 0 0.0 0.0 0.00 0.00 0.00 74 1014.2
20260903005404 28 0 0.0 0.0 0.00 0.00 0.00 74 1014.1
20260903004504 28 0 0.0 0.0 0.00 0.00 0.00 74 1013.9
20260903003604 28 0 0.0 0.0 0.00 0.00 0.00 74 1013.9
20260903002703 28 0 0.0 0.0 0.00 0.00 0.00 73 1013.8
20260903002021 28 0 0.0 0.0 0.00 0.00 0.00 73 1013.8
20260903000903 28 0 0.0 0.0 0.00 0.00 0.00 72 1013.9
20260903000004 29 0 0.0 0.0 0.00 0.00 0.00 72 1013.9
20260902235403 29 0 0.0 0.0 0.00 0.00 0.00 71 1013.9
20260902234503 30 0 0.0 0.0 0.00 0.00 0.00 70 1013.8
20260902233604 30 0 0.0 0.0 0.00 0.00 0.00 69 1013.8
20260902232703 30 0 0.0 0.0 0.00 0.00 0.00 68 1013.8
20260902231803 31 0 0.0 0.0 0.00 0.00 0.00 67 1013.8
20260902230904 31 0 0.0 0.0 0.00 0.00 0.00 66 1013.7
20260902230003 31 0 0.0 0.0 0.00 0.00 0.00 65 1013.8
20260902225403 31 0 0.0 0.0 0.00 0.00 0.00 65 1013.8
20260902224720 31 0 0.0 0.0 0.00 0.00 0.00 64 1013.8
20260902223603 32 0 0.0 0.0 0.00 0.00 0.00 63 1013.8
20260902222703 32 0 0.0 0.0 0.00 0.00 0.00 65 1013.8
20260902222017 32 0 0.0 0.0 0.00 0.00 0.00 64 1013.9
20260902220904 32 0 0.0 0.0 0.00 0.00 0.00 65 1013.9
20260902220004 32 0 0.0 0.0 0.00 0.00 0.00 65 1013.9
20260902215403 32 0 0.0 0.0 0.00 0.00 0.00 66 1013.8
20260902214721 32 0 0.0 0.0 0.00 0.00 0.00 65 1013.9
20260902213603 32 0 0.0 0.0 0.00 0.00 0.00 66 1013.9
20260902212704 32 0 0.0 0.0 0.00 0.00 0.00 63 1013.9
20260902211804 32 0 0.0 0.0 0.00 0.00 0.00 64 1013.9
20260902211120 32 0 0.0 0.0 0.00 0.00 0.00 64 1013.9
20260902210004 32 0 0.0 0.0 0.00 0.00 0.00 66 1014.2
20260902205404 32 0 0.0 0.0 0.00 0.00 0.00 65 1014.2
20260902204503 32 0 0.0 0.0 0.00 0.00 0.00 65 1014.3
20260902203603 32 0 0.0 0.0 0.00 0.00 0.00 63 1014.4
20260902202921 33 0 0.0 0.0 0.00 0.00 0.00 60 1014.5
20260902201803 33 0 0.0 0.0 0.00 0.00 0.00 64 1014.5
20260902200904 33 0 0.0 0.0 0.00 0.00 0.00 62 1014.6
20260902200003 33 0 0.0 0.0 0.00 0.00 0.00 63 1014.7
20260902195403 33 0 0.0 0.0 0.00 0.00 0.00 63 1014.8
20260902194722 33 0 0.0 0.0 0.00 0.00 0.00 63 1014.9
20260902193603 32 0 0.0 0.0 0.00 0.00 0.00 63 1014.9
20260902192703 32 0 0.0 0.0 0.00 0.00 0.00 63 1015.1
20260902191803 32 0 0.0 0.0 0.00 0.00 0.00 61 1015.2
20260902190903 32 0 0.0 0.0 0.00 0.00 0.00 64 1015.3
20260902190003 32 0 0.0 0.0 0.00 0.00 0.00 63 1015.3
20260902185403 32 0 0.0 0.0 0.00 0.00 0.00 63 1015.3
20260902184503 32 0 0.0 0.0 0.00 0.00 0.00 65 1015.4
20260902183639 32 0 0.0 0.0 0.00 0.00 0.00 65 1015.4
20260902182704 32 0 0.0 0.0 0.00 0.00 0.00 65 1015.5
20260902181803 32 0 0.0 0.0 0.00 0.00 0.00 70 1015.6
20260902180903 32 0 0.0 0.0 0.00 0.00 0.00 71 1015.7
20260902180005 32 0 0.0 0.0 0.00 0.00 0.00 72 1015.8
20260902175404 31 0 0.0 0.0 0.00 0.00 0.00 70 1015.9
20260902174503 31 0 0.0 0.0 0.00 0.00 0.00 73 1015.9
20260902173603 31 0 0.0 0.0 0.00 0.00 0.00 71 1016.0
20260902172918 31 0 0.0 0.0 0.00 0.00 0.00 70 1016.3
20260902171803 31 0 0.0 0.0 0.00 0.00 0.00 73 1016.4
20260902170903 31 0 0.0 0.0 0.00 0.00 0.00 72 1016.4
20260902170004 30 0 0.0 0.0 0.00 0.00 0.00 73 1016.5
20260902165403 31 0 0.0 0.0 0.00 0.00 0.00 71 1016.5
20260902164503 31 0 0.0 0.0 0.00 0.00 0.00 72 1016.5
20260902163603 30 0 0.0 0.0 0.00 0.00 0.00 73 1016.6
20260902162703 30 0 0.0 0.0 0.00 0.00 0.00 73 1016.7
20260902161803 30 0 0.0 0.0 0.00 0.00 0.00 73 1016.6
20260902160903 30 0 0.0 0.0 0.00 0.00 0.00 74 1016.6
20260902160005 30 0 0.0 0.0 0.00 0.00 0.00 74 1016.6
20260902155403 30 0 0.0 0.0 0.00 0.00 0.00 74 1016.6
20260902154503 29 0 0.0 0.0 0.00 0.00 0.00 76 1016.6
20260902153603 28 0 0.0 0.0 0.00 0.00 0.00 75 1016.5
20260902152703 29 0 0.0 0.0 0.00 0.00 0.00 75 1016.5
20260902152021 28 0 0.0 0.0 0.00 0.00 0.00 75 1016.6
20260902151119 28 0 0.0 0.0 0.00 0.00 0.00 75 1016.5
20260902150004 28 0 0.0 0.0 0.00 0.00 0.00 77 1016.6
20260902145618 28 0 0.0 0.0 0.00 0.00 0.00 77 1016.6
20260902144504 28 0 0.0 0.0 0.00 0.00 0.00 77 1016.5
20260902143817 28 0 0.0 0.0 0.00 0.00 0.00 78 1016.5
20260902142705 27 0 0.0 0.0 0.00 0.00 0.00 79 1016.5
20260902142017 27 0 0.0 0.0 0.00 0.00 0.00 80 1016.5
20260902140904 27 0 0.0 0.0 0.00 0.00 0.00 81 1016.3
20260902140004 26 0 0.0 0.0 0.00 0.00 0.00 81 1016.4
20260902135618 26 0 0.0 0.0 0.00 0.00 0.00 82 1016.3
20260902134721 26 0 0.0 0.0 0.00 0.00 0.00 83 1016.4
20260902133603 25 0 0.0 0.0 0.00 0.08 0.00 85 1016.4
20260902132703 25 0 0.0 0.0 0.00 0.30 0.00 85 1016.5
20260902131803 25 0 0.0 0.0 0.00 0.30 0.00 86 1016.4
20260902130903 25 0 0.0 0.0 0.00 0.36 0.00 87 1016.5
20260902130217 25 0 0.0 0.0 0.00 0.36 0.00 87 1016.5
20260902125403 25 0 0.0 0.0 0.00 0.36 0.00 87 1016.4
20260902124504 24 0 0.0 0.0 0.00 0.36 0.00 88 1016.2
20260902123604 24 0 0.0 0.0 0.00 0.36 0.00 88 1016.3
20260902122703 24 0 0.0 0.0 0.00 0.36 0.00 89 1016.3
20260902121804 23 0 0.0 0.0 0.00 0.36 0.00 89 1016.1
20260902120903 23 0 0.0 0.0 0.00 0.36 0.00 90 1016.2
20260902120218 23 0 0.0 0.0 0.00 0.36 0.00 90 1016.2
20260902115403 23 0 0.0 0.0 0.00 0.36 0.00 90 1016.2
20260902114503 23 0 0.0 0.0 0.00 0.36 0.00 91 1016.0
20260902113603 23 0 0.0 0.0 0.00 0.36 0.00 90 1016.0
20260902112704 23 0 0.0 0.0 0.00 0.36 0.00 90 1015.9
20260902112019 23 0 0.0 0.0 0.00 0.36 0.00 90 1015.8
20260902110903 23 0 0.0 0.0 0.00 0.36 0.00 91 1015.7
20260902110005 23 0 0.0 0.0 0.00 0.36 0.00 91 1015.6
20260902105620 23 0 0.0 0.0 0.00 0.36 0.00 91 1015.5
20260902104503 23 0 0.0 0.0 0.00 0.36 0.00 91 1015.5
20260902103603 23 0 0.0 0.0 0.00 0.36 0.00 92 1015.5
20260902102704 23 0 0.0 0.0 0.00 0.36 0.00 92 1015.5
20260902101803 23 0 0.0 0.0 0.00 0.36 0.00 92 1015.5
20260902100903 23 0 0.0 0.0 0.00 0.36 0.00 92 1015.5
20260902100003 23 0 0.0 0.0 0.00 0.36 0.00 92 1015.5
20260902095621 23 0 0.0 0.0 0.00 0.36 0.00 92 1015.5
20260902094503 23 0 0.0 0.0 0.00 0.36 0.00 92 1015.6
20260902093603 23 0 0.0 0.0 0.00 0.36 0.00 92 1015.6
20260902092704 23 0 0.0 0.0 0.00 0.36 0.00 91 1015.7
20260902091804 23 0 0.0 0.0 0.00 0.36 0.00 91 1015.7
20260902091118 23 0 0.0 0.0 0.00 0.36 0.00 91 1015.6
20260902090004 23 0 0.0 0.0 0.00 0.36 0.00 91 1015.5
20260902085622 23 0 0.0 0.0 0.00 0.36 0.00 91 1015.4
20260902084503 23 0 0.0 0.0 0.00 0.36 0.00 92 1015.5
20260902083604 23 0 0.0 0.0 0.00 0.36 0.00 92 1015.4
20260902082703 23 0 0.0 0.0 0.00 0.36 0.00 92 1015.5
20260902081804 23 0 0.0 0.0 0.00 0.36 0.00 91 1015.5
20260902080904 23 0 0.0 0.0 0.00 0.36 0.00 90 1015.5
20260902080003 23 0 0.0 0.0 0.00 0.36 0.00 91 1015.5
20260902075404 23 0 0.0 0.0 0.00 0.36 0.00 91 1015.4
20260902074503 23 0 0.0 0.0 0.00 0.36 0.00 91 1015.4